Regional Weather Roundup
Issued by NWS

Home | Current Version | Previous Version | Graphics & Text | Print | Product List | Glossary On
Versions: 1 2 3 4 5 6 7 8 9 10 11 12 13 14 15 16 17 18 19 20 21 22 23 24 25 26 27 28 29 30 31 32 33 34 35 36 37 38 39 40 41 42 43 44 45 46 47 48 49 50
000
ASUS45 KTFX 040510
RWRMT
MONTANA REGIONAL WEATHER ROUNDUP
NATIONAL WEATHER SERVICE GREAT FALLS MT
1100 PM MDT TUE MAY 03 2016

NOTE: "FAIR" INDICATES FEW OR NO CLOUDS BELOW 12000 FEET WITH NO
SIGNIFICANT WEATHER AND/OR OBSTRUCTIONS TO VISIBILITY.

MTZ001>007-043-040600-
WEST OF THE DIVIDE

CITY           SKY/WX    TMP DP  RH WIND       PRES   REMARKS
KALISPELL      CLEAR     52  45  77 W6        29.98S
MISSOULA       CLEAR     61  38  42 CALM      30.01S
BUTTE          CLEAR     50  31  48 E5        30.14R
MULLAN PASS    CLEAR     55  31  39 NW7       30.14S
$$

MTZ008-052>055-040600-
SOUTHWEST MONTANA

CITY           SKY/WX    TMP DP  RH WIND       PRES   REMARKS
BOZEMAN        CLEAR     50  36  58 SE10      30.10R
DILLON         CLEAR     56  25  30 N8        30.12R
ENNIS          CLEAR     55  25  30 SE14      30.21S
$$

MTZ009-010-012-014-046-048-049-054-040600-
EAST SLOPES AND CENTRAL MONTANA

CITY           SKY/WX    TMP DP  RH WIND       PRES   REMARKS
CUT BANK       CLEAR     60  31  33 W7        30.02S
GREAT FALLS    CLEAR     60  39  45 SE9       30.02S
MALMSTROM AFB  CLEAR     55  42  61 SE12      30.02S
HELENA         CLEAR     60  35  39 CALM      30.05S
$$

MTZ011-013-016-021-045-047-050-051-040600-
NORTH CENTRAL MONTANA

CITY           SKY/WX    TMP DP  RH WIND       PRES   REMARKS
HAVRE          CLEAR     55  44  66 NW6       29.99S
LEWISTOWN      CLEAR     54  39  57 E7        30.09F
N BAR RANCH      N/A     54  37  54 SW9       30.15S
$$

MTZ017>020-022>027-061-062-040600-
NORTHEAST MONTANA

CITY           SKY/WX    TMP DP  RH WIND       PRES   REMARKS
GLASGOW        CLEAR     64  37  36 S5        30.03F
JORDAN           N/A     54  43  66 S3        30.06S
SIDNEY         CLEAR     54  41  62 CALM      30.06S
WOLF POINT     PTCLDY    57  44  62 CALM      30.04R
$$

MTZ028>42-056>058-040600-
SOUTHCENTRAL AND SOUTHEAST MONTANA

CITY           SKY/WX    TMP DP  RH WIND       PRES   REMARKS
BAKER          CLEAR     50  39  66 CALM      30.10S
BILLINGS       CLEAR     63  38  39 S5        30.09S
LIVINGSTON     CLEAR     48  35  60 CALM      30.11R
MILES CITY     CLEAR     62  39  42 SE6       30.07S
$$

REGIONAL REPORTS...DAKOTAS

CITY           SKY/WX    TMP DP  RH WIND       PRES   REMARKS
WILLISTON      CLEAR     51  41  68 N5        30.05S
MINOT          CLEAR     55  26  32 E5        30.06R
DICKINSON      CLEAR     55  37  50 E6        30.07R
BEACH            N/A     46  39  76 S5        30.12S
CROSBY           N/A     52  37  58 S5        30.07R
TIOGA            N/A     45  36  70 CALM      30.12R
WATFORD CITY     N/A     52  39  62 CALM      30.07R
BISMARCK       CLEAR     50  30  46 S3        30.07R
GRAND FORKS    CLEAR     40  29  64 N6        30.01R
FARGO          CLEAR     53  27  36 N16       29.98R
BUFFALO SD       N/A     58  37  45 E8        30.05R
RAPID CITY     CLEAR     52  39  61 NW12      30.11R
$$

REGIONAL REPORTS...WYOMING/IDAHO/WASHINGTON

CITY           SKY/WX    TMP DP  RH WIND       PRES   REMARKS
GILLETTE       CLEAR     44  39  82 S7        30.17S
SHERIDAN       CLEAR     49  39  68 S3        30.13F
BUFFALO WY     CLEAR     54  35  48 W8        30.20S
CODY           CLEAR     52  34  50 S3        30.17S
YELLOWSTONE LA   N/A     33  25  72 CALM      30.34R
IDAHO FALLS    CLEAR     51  35  54 CALM      30.18R
SALMON         CLEAR     55  30  38 CALM      30.06R
BOISE          PTCLDY    69  31  24 SE7       30.01S
SPOKANE        PTCLDY    64  40  41 S3        29.96S
$$

REGIONAL REPORTS...ALBERTA

CITY           SKY/WX    TMP DP  RH WIND       PRES   REMARKS
EDMONTON       PTCLDY    59  34  38 SE3       29.81S
LETHBRIDGE     CLEAR     54  34  47 S18       29.96R
MEDICINE HAT   CLEAR     68  39  34 S13G18    29.92S
CARDSTON         N/A     57  36  44 SW10        N/A
MILK RIVER       N/A     50  39  66 NE1         N/A
ONEFOUR          N/A     54  41  62 E10         N/A
$$

REGIONAL REPORTS...SASKATCHEWAN

CITY           SKY/WX    TMP DP  RH WIND       PRES   REMARKS
SWIFT CURRENT  CLEAR     59  41  51 S13       29.99S
REGINA         CLEAR     57  36  44 SE9       30.02S
SASKATOON      PTCLDY    59  43  55 SE8       29.93F
CYPRESS HILLS    N/A     57  37  47 S7          N/A
ROCKGLEN         N/A     57  36  44 S7          N/A
ASSINIBOIA       N/A     61  41  48 S5          N/A
$$



USA.gov is the U.S. government's official web portal to all federal, state and local government web resources and services.